Time,TemperatureF,DewpointF,PressureIn,WindDirection,WindDirectionDegrees,WindSpeedMPH,WindSpeedGustMPH,Humidity,HourlyPrecipIn,Conditions,Clouds,dailyrainin,SoftwareType,DateUTC
2013-02-02 00:03:00,23.5,4.8,17.72,East,88,0.0,0.0,44,0.00,,---,0.00,VWS V14.00,2013-02-02 07:03:00,
2013-02-02 00:09:00,23.5,4.8,17.72,East,88,0.0,0.0,44,0.00,,---,0.00,VWS V14.00,2013-02-02 07:09:00,
2013-02-02 00:14:00,23.2,4.5,17.72,East,88,0.0,0.0,44,0.00,,---,0.00,VWS V14.00,2013-02-02 07:14:00,
2013-02-02 00:19:00,23.2,4.5,17.72,East,88,0.0,0.0,44,0.00,,---,0.00,VWS V14.00,2013-02-02 07:19:00,
2013-02-02 00:24:00,23.0,4.3,17.72,East,88,0.0,0.0,44,0.00,,---,0.00,VWS V14.00,2013-02-02 07:24:00,
2013-02-02 00:29:00,23.0,4.3,17.72,East,88,0.0,0.0,44,0.00,,---,0.00,VWS V14.00,2013-02-02 07:29:00,
2013-02-02 00:34:00,23.0,4.8,17.72,East,88,0.0,0.0,45,0.00,,---,0.00,VWS V14.00,2013-02-02 07:34:00,
2013-02-02 00:39:00,23.0,4.8,17.72,East,88,0.0,0.0,45,0.00,,---,0.00,VWS V14.00,2013-02-02 07:39:00,
2013-02-02 00:44:00,22.8,4.7,17.72,East,88,0.0,0.0,45,0.00,,---,0.00,VWS V14.00,2013-02-02 07:44:00,
2013-02-02 00:49:00,22.8,4.7,17.72,East,88,0.0,0.0,45,0.00,,---,0.00,VWS V14.00,2013-02-02 07:49:00,
2013-02-02 00:54:00,22.6,4.5,17.72,East,88,0.0,0.0,45,0.00,,---,0.00,VWS V14.00,2013-02-02 07:54:00,
2013-02-02 00:59:00,22.5,4.3,17.72,East,88,0.0,0.0,45,0.00,,---,0.00,VWS V14.00,2013-02-02 07:59:00,
2013-02-02 01:05:00,22.5,4.3,17.72,East,88,0.0,0.0,45,0.00,,---,0.00,VWS V14.00,2013-02-02 08:05:00,
2013-02-02 01:10:00,22.5,4.3,17.72,East,88,0.0,0.0,45,0.00,,---,0.00,VWS V14.00,2013-02-02 08:10:00,
2013-02-02 01:16:00,22.5,4.3,17.72,East,88,0.0,0.0,45,0.00,,---,0.00,VWS V14.00,2013-02-02 08:16:00,
2013-02-02 01:21:00,22.5,4.3,17.72,East,88,0.0,0.0,45,0.00,,---,0.00,VWS V14.00,2013-02-02 08:21:00,
2013-02-02 01:26:00,22.5,4.3,17.72,East,88,0.0,0.0,45,0.00,,---,0.00,VWS V14.00,2013-02-02 08:26:00,
2013-02-02 01:31:00,22.5,4.3,17.72,East,88,0.0,0.0,45,0.00,,---,0.00,VWS V14.00,2013-02-02 08:31:00,
2013-02-02 01:36:00,22.5,4.3,17.72,East,88,0.0,0.0,45,0.00,,---,0.00,VWS V14.00,2013-02-02 08:36:00,
2013-02-02 01:41:00,22.3,4.2,17.72,East,88,0.0,0.0,45,0.00,,---,0.00,VWS V14.00,2013-02-02 08:41:00,
2013-02-02 01:46:00,22.1,4.0,17.72,East,88,0.0,0.0,45,0.00,,---,0.00,VWS V14.00,2013-02-02 08:46:00,
2013-02-02 01:51:00,22.1,4.0,17.72,East,88,0.0,0.0,45,0.00,,---,0.00,VWS V14.00,2013-02-02 08:51:00,
2013-02-02 01:56:00,22.1,4.0,17.72,East,88,0.0,0.0,45,0.00,,---,0.00,VWS V14.00,2013-02-02 08:56:00,
2013-02-02 02:01:00,22.1,4.0,17.72,East,88,0.0,0.0,45,0.00,,---,0.00,VWS V14.00,2013-02-02 09:01:00,
2013-02-02 02:06:00,21.9,3.8,17.72,East,88,0.0,0.0,45,0.00,,---,0.00,VWS V14.00,2013-02-02 09:06:00,
2013-02-02 02:12:00,21.9,3.8,17.72,East,88,0.0,0.0,45,0.00,,---,0.00,VWS V14.00,2013-02-02 09:12:00,
2013-02-02 02:17:00,21.7,3.7,17.72,East,88,0.0,0.0,45,0.00,,---,0.00,VWS V14.00,2013-02-02 09:17:00,
2013-02-02 02:22:00,21.7,3.7,17.72,East,88,0.0,0.0,45,0.00,,---,0.00,VWS V14.00,2013-02-02 09:22:00,
2013-02-02 02:27:00,21.6,3.5,17.72,East,88,0.0,0.0,45,0.00,,---,0.00,VWS V14.00,2013-02-02 09:27:00,
2013-02-02 02:32:00,21.4,3.3,17.72,East,88,0.0,0.0,45,0.00,,---,0.00,VWS V14.00,2013-02-02 09:32:00,
2013-02-02 02:37:00,21.4,3.3,17.72,East,88,0.0,0.0,45,0.00,,---,0.00,VWS V14.00,2013-02-02 09:37:00,
2013-02-02 02:42:00,21.2,3.7,17.72,East,88,0.0,0.0,46,0.00,,---,0.00,VWS V14.00,2013-02-02 09:42:00,
2013-02-02 02:47:00,21.2,3.7,17.72,East,88,0.0,0.0,46,0.00,,---,0.00,VWS V14.00,2013-02-02 09:47:00,
2013-02-02 02:52:00,21.2,3.7,17.72,East,88,0.0,0.0,46,0.00,,---,0.00,VWS V14.00,2013-02-02 09:52:00,
2013-02-02 02:57:00,21.0,3.5,17.72,East,88,0.0,0.0,46,0.00,,---,0.00,VWS V14.00,2013-02-02 09:57:00,
2013-02-02 03:02:00,21.0,3.5,17.72,East,88,0.0,0.0,46,0.00,,---,0.00,VWS V14.00,2013-02-02 10:02:00,
2013-02-02 03:07:00,21.0,3.5,17.72,East,88,0.0,0.0,46,0.00,,---,0.00,VWS V14.00,2013-02-02 10:07:00,
2013-02-02 03:12:00,20.8,3.3,17.72,East,88,0.0,0.0,46,0.00,,---,0.00,VWS V14.00,2013-02-02 10:12:00,
2013-02-02 03:18:00,20.7,3.2,17.72,East,88,0.0,0.0,46,0.00,,---,0.00,VWS V14.00,2013-02-02 10:18:00,
2013-02-02 03:23:00,20.5,3.0,17.72,East,88,0.0,0.0,46,0.00,,---,0.00,VWS V14.00,2013-02-02 10:23:00,
2013-02-02 03:28:00,20.5,3.0,17.72,East,88,0.0,0.0,46,0.00,,---,0.00,VWS V14.00,2013-02-02 10:28:00,
2013-02-02 03:33:00,20.3,2.8,17.72,East,88,0.0,0.0,46,0.00,,---,0.00,VWS V14.00,2013-02-02 10:33:00,
2013-02-02 03:38:00,20.5,3.0,17.72,East,88,0.0,0.0,46,0.00,,---,0.00,VWS V14.00,2013-02-02 10:38:00,
2013-02-02 03:43:00,20.3,2.8,17.72,East,88,0.0,0.0,46,0.00,,---,0.00,VWS V14.00,2013-02-02 10:43:00,
2013-02-02 03:48:00,20.1,2.7,17.72,East,88,0.0,0.0,46,0.00,,---,0.00,VWS V14.00,2013-02-02 10:48:00,
2013-02-02 03:53:00,20.1,2.7,17.72,East,88,0.0,0.0,46,0.00,,---,0.00,VWS V14.00,2013-02-02 10:53:00,
2013-02-02 03:58:00,20.1,2.7,17.72,East,88,0.0,0.0,46,0.00,,---,0.00,VWS V14.00,2013-02-02 10:58:00,
2013-02-02 04:03:00,20.1,2.7,17.72,East,88,0.0,0.0,46,0.00,,---,0.00,VWS V14.00,2013-02-02 11:03:00,
2013-02-02 04:08:00,19.9,2.5,17.72,East,88,0.0,0.0,46,0.00,,---,0.00,VWS V14.00,2013-02-02 11:08:00,
2013-02-02 04:13:00,19.9,2.5,17.72,East,88,0.0,0.0,46,0.00,,---,0.00,VWS V14.00,2013-02-02 11:13:00,
2013-02-02 04:18:00,19.9,2.5,17.72,East,88,0.0,0.0,46,0.00,,---,0.00,VWS V14.00,2013-02-02 11:18:00,
2013-02-02 04:24:00,19.9,2.5,17.72,East,88,0.0,0.0,46,0.00,,---,0.00,VWS V14.00,2013-02-02 11:24:00,
2013-02-02 04:29:00,20.1,2.7,17.72,East,88,0.0,0.0,46,0.00,,---,0.00,VWS V14.00,2013-02-02 11:29:00,
2013-02-02 04:34:00,19.9,2.5,17.72,East,88,0.0,0.0,46,0.00,,---,0.00,VWS V14.00,2013-02-02 11:34:00,
2013-02-02 04:39:00,19.9,2.5,17.72,East,88,0.0,0.0,46,0.00,,---,0.00,VWS V14.00,2013-02-02 11:39:00,
2013-02-02 04:44:00,19.9,2.5,17.72,East,88,0.0,0.0,46,0.00,,---,0.00,VWS V14.00,2013-02-02 11:44:00,
2013-02-02 04:49:00,19.8,2.3,17.72,East,88,0.0,0.0,46,0.00,,---,0.00,VWS V14.00,2013-02-02 11:49:00,
2013-02-02 04:54:00,19.8,2.3,17.72,East,88,0.0,0.0,46,0.00,,---,0.00,VWS V14.00,2013-02-02 11:54:00,
2013-02-02 04:59:00,19.9,2.5,17.72,East,88,0.0,0.0,46,0.00,,---,0.00,VWS V14.00,2013-02-02 11:59:00,
2013-02-02 05:04:00,19.8,2.3,17.72,East,88,0.0,0.0,46,0.00,,---,0.00,VWS V14.00,2013-02-02 12:04:00,
2013-02-02 05:09:00,19.8,2.3,17.72,East,88,0.0,0.0,46,0.00,,---,0.00,VWS V14.00,2013-02-02 12:09:00,
2013-02-02 05:14:00,19.6,2.2,17.72,East,88,0.0,0.0,46,0.00,,---,0.00,VWS V14.00,2013-02-02 12:14:00,
2013-02-02 05:19:00,19.6,2.2,17.72,East,88,0.0,0.0,46,0.00,,---,0.00,VWS V14.00,2013-02-02 12:19:00,
2013-02-02 05:25:00,19.6,2.2,17.72,East,88,0.0,0.0,46,0.00,,---,0.00,VWS V14.00,2013-02-02 12:25:00,
2013-02-02 05:30:00,19.6,2.2,17.72,East,88,0.0,0.0,46,0.00,,---,0.00,VWS V14.00,2013-02-02 12:30:00,
2013-02-02 05:35:00,19.8,2.3,17.72,East,88,0.0,0.0,46,0.00,,---,0.00,VWS V14.00,2013-02-02 12:35:00,
2013-02-02 05:40:00,19.8,2.3,17.72,East,88,0.0,0.0,46,0.00,,---,0.00,VWS V14.00,2013-02-02 12:40:00,
2013-02-02 05:45:00,19.8,2.3,17.72,East,88,0.0,0.0,46,0.00,,---,0.00,VWS V14.00,2013-02-02 12:45:00,
2013-02-02 05:50:00,19.9,2.5,17.72,East,88,0.0,0.0,46,0.00,,---,0.00,VWS V14.00,2013-02-02 12:50:00,
2013-02-02 05:55:00,19.8,2.3,17.72,East,88,0.0,0.0,46,0.00,,---,0.00,VWS V14.00,2013-02-02 12:55:00,
2013-02-02 06:00:00,19.8,2.3,17.72,East,88,0.0,0.0,46,0.00,,---,0.00,VWS V14.00,2013-02-02 13:00:00,
2013-02-02 06:05:00,19.8,2.3,17.72,East,88,0.0,0.0,46,0.00,,---,0.00,VWS V14.00,2013-02-02 13:05:00,
2013-02-02 06:10:00,19.9,2.5,17.72,East,88,0.0,0.0,46,0.00,,---,0.00,VWS V14.00,2013-02-02 13:10:00,
2013-02-02 06:15:00,19.9,2.5,17.72,East,88,0.0,0.0,46,0.00,,---,0.00,VWS V14.00,2013-02-02 13:15:00,
2013-02-02 06:20:00,19.9,2.5,17.72,East,88,0.0,0.0,46,0.00,,---,0.00,VWS V14.00,2013-02-02 13:20:00,
2013-02-02 06:25:00,19.8,2.3,17.72,East,88,0.0,0.0,46,0.00,,---,0.00,VWS V14.00,2013-02-02 13:25:00,
2013-02-02 06:30:00,19.8,2.3,17.72,East,88,0.0,0.0,46,0.00,,---,0.00,VWS V14.00,2013-02-02 13:30:00,
2013-02-02 06:35:00,19.8,2.3,17.72,East,88,0.0,0.0,46,0.00,,---,0.00,VWS V14.00,2013-02-02 13:35:00,
2013-02-02 06:40:00,19.8,2.3,17.72,East,88,0.0,0.0,46,0.00,,---,0.00,VWS V14.00,2013-02-02 13:40:00,
2013-02-02 06:45:00,19.9,2.5,17.72,East,88,0.0,0.0,46,0.00,,---,0.00,VWS V14.00,2013-02-02 13:45:00,
2013-02-02 06:50:00,19.9,2.5,17.72,East,88,0.0,0.0,46,0.00,,---,0.00,VWS V14.00,2013-02-02 13:50:00,
2013-02-02 06:55:00,19.9,2.5,17.72,East,88,0.0,0.0,46,0.00,,---,0.00,VWS V14.00,2013-02-02 13:55:00,
2013-02-02 07:00:00,19.9,2.5,17.72,East,88,0.0,0.0,46,0.00,,---,0.00,VWS V14.00,2013-02-02 14:00:00,
2013-02-02 07:05:00,19.9,2.5,17.72,East,88,0.0,0.0,46,0.00,,---,0.00,VWS V14.00,2013-02-02 14:05:00,
2013-02-02 07:10:00,19.8,2.3,17.72,North,357,0.0,0.0,46,0.00,,---,0.00,VWS V14.00,2013-02-02 14:10:00,
2013-02-02 07:16:00,19.8,2.3,17.72,North,357,0.0,0.0,46,0.00,,---,0.00,VWS V14.00,2013-02-02 14:16:00,
2013-02-02 07:21:00,19.8,2.3,17.72,North,357,0.0,0.0,46,0.00,,---,0.00,VWS V14.00,2013-02-02 14:21:00,
2013-02-02 07:26:00,19.8,2.3,17.72,North,357,0.0,0.0,46,0.00,,---,0.00,VWS V14.00,2013-02-02 14:26:00,
2013-02-02 07:31:00,19.8,2.3,17.72,North,357,0.0,0.0,46,0.00,,---,0.00,VWS V14.00,2013-02-02 14:31:00,
2013-02-02 07:36:00,19.6,2.2,17.72,North,357,0.0,0.0,46,0.00,,---,0.00,VWS V14.00,2013-02-02 14:36:00,
2013-02-02 07:41:00,19.6,2.2,17.72,North,357,0.0,0.0,46,0.00,,---,0.00,VWS V14.00,2013-02-02 14:41:00,
2013-02-02 07:46:00,19.6,2.2,17.72,North,357,0.0,0.0,46,0.00,,---,0.00,VWS V14.00,2013-02-02 14:46:00,
2013-02-02 07:51:00,19.6,2.2,17.72,North,357,0.0,0.0,46,0.00,,---,0.00,VWS V14.00,2013-02-02 14:51:00,
2013-02-02 07:56:00,19.8,2.3,17.72,North,357,0.0,0.0,46,0.00,,---,0.00,VWS V14.00,2013-02-02 14:56:00,
2013-02-02 08:01:00,19.9,2.5,17.72,North,357,0.0,0.0,46,0.00,,---,0.00,VWS V14.00,2013-02-02 15:01:00,
2013-02-02 08:07:00,20.3,2.8,17.72,North,357,0.0,0.0,46,0.00,,---,0.00,VWS V14.00,2013-02-02 15:07:00,
2013-02-02 08:12:00,20.7,3.2,17.72,North,357,0.0,0.0,46,0.00,,---,0.00,VWS V14.00,2013-02-02 15:12:00,
2013-02-02 08:17:00,21.0,3.5,17.72,North,357,0.0,0.0,46,0.00,,---,0.00,VWS V14.00,2013-02-02 15:17:00,
2013-02-02 08:22:00,21.6,4.0,17.72,North,357,0.0,0.0,46,0.00,,---,0.00,VWS V14.00,2013-02-02 15:22:00,
2013-02-02 08:27:00,21.9,4.3,17.72,North,357,0.0,0.0,46,0.00,,---,0.00,VWS V14.00,2013-02-02 15:27:00,
2013-02-02 08:33:00,22.5,4.8,17.72,North,357,0.0,0.0,46,0.00,,---,0.00,VWS V14.00,2013-02-02 15:33:00,
2013-02-02 08:38:00,22.8,5.2,17.72,North,357,0.0,0.0,46,0.00,,---,0.00,VWS V14.00,2013-02-02 15:38:00,
2013-02-02 08:43:00,23.2,5.5,17.72,North,357,0.0,0.0,46,0.00,,---,0.00,VWS V14.00,2013-02-02 15:43:00,
2013-02-02 08:48:00,23.9,6.1,17.72,North,357,0.0,0.0,46,0.00,,---,0.00,VWS V14.00,2013-02-02 15:48:00,
2013-02-02 08:53:00,24.4,6.6,17.72,North,357,0.0,0.0,46,0.00,,---,0.00,VWS V14.00,2013-02-02 15:53:00,
2013-02-02 08:58:00,25.2,7.3,17.72,North,357,0.0,0.0,46,0.00,,---,0.00,VWS V14.00,2013-02-02 15:58:00,
2013-02-02 09:03:00,25.9,8.0,17.72,North,357,0.0,0.0,46,0.00,,---,0.00,VWS V14.00,2013-02-02 16:03:00,
2013-02-02 09:08:00,26.4,8.5,17.72,North,357,0.0,0.0,46,0.00,,---,0.00,VWS V14.00,2013-02-02 16:08:00,
2013-02-02 09:13:00,27.1,9.1,17.72,North,357,0.0,0.0,46,0.00,,---,0.00,VWS V14.00,2013-02-02 16:13:00,
2013-02-02 09:18:00,28.0,9.9,17.72,North,357,0.0,0.0,46,0.00,,---,0.00,VWS V14.00,2013-02-02 16:18:00,
2013-02-02 09:24:00,28.9,10.3,17.72,North,357,0.0,0.0,45,0.00,,---,0.00,VWS V14.00,2013-02-02 16:24:00,
2013-02-02 09:29:00,30.0,11.3,17.72,North,357,0.0,0.0,45,0.00,,---,0.00,VWS V14.00,2013-02-02 16:29:00,
2013-02-02 09:34:00,30.9,11.6,17.72,North,357,0.0,0.0,44,0.00,,---,0.00,VWS V14.00,2013-02-02 16:34:00,
2013-02-02 09:39:00,32.2,12.7,17.72,North,357,0.0,0.0,44,0.00,,---,0.00,VWS V14.00,2013-02-02 16:39:00,
2013-02-02 09:44:00,33.3,13.2,17.72,North,357,0.0,0.0,43,0.00,,---,0.00,VWS V14.00,2013-02-02 16:44:00,
2013-02-02 09:49:00,34.5,13.8,17.72,North,357,0.0,0.0,42,0.00,,---,0.00,VWS V14.00,2013-02-02 16:49:00,
2013-02-02 09:54:00,35.6,14.2,17.72,North,357,0.0,0.0,41,0.00,,---,0.00,VWS V14.00,2013-02-02 16:54:00,
2013-02-02 09:59:00,36.9,14.8,17.72,SE,125,2.2,2.2,40,0.00,,---,0.00,VWS V14.00,2013-02-02 16:59:00,
2013-02-02 10:05:00,38.3,15.5,17.72,East,90,4.9,4.9,39,0.00,,---,0.00,VWS V14.00,2013-02-02 17:05:00,
2013-02-02 10:10:00,39.4,16.5,17.72,ENE,59,2.7,5.4,39,0.00,,---,0.00,VWS V14.00,2013-02-02 17:10:00,
2013-02-02 10:15:00,40.5,17.5,17.72,NE,55,2.2,6.3,39,0.00,,---,0.00,VWS V14.00,2013-02-02 17:15:00,
2013-02-02 10:20:00,41.4,18.3,17.72,ENE,70,2.2,2.2,39,0.00,,---,0.00,VWS V14.00,2013-02-02 17:20:00,
2013-02-02 10:25:00,42.3,19.1,17.72,SSE,154,2.7,3.6,39,0.00,,---,0.00,VWS V14.00,2013-02-02 17:25:00,
2013-02-02 10:30:00,43.2,19.3,17.72,East,88,2.7,3.6,38,0.00,,---,0.00,VWS V14.00,2013-02-02 17:30:00,
2013-02-02 10:35:00,44.1,20.1,17.72,East,98,4.0,4.0,38,0.00,,---,0.00,VWS V14.00,2013-02-02 17:35:00,
2013-02-02 10:40:00,44.8,20.7,17.72,SE,125,2.7,4.0,38,0.00,,---,0.00,VWS V14.00,2013-02-02 17:40:00,
2013-02-02 10:45:00,45.5,21.4,17.72,SSE,156,3.1,4.9,38,0.00,,---,0.00,VWS V14.00,2013-02-02 17:45:00,
2013-02-02 10:54:00,46.8,21.9,17.72,East,100,0.0,0.0,37,0.00,,---,0.00,VWS V14.00,2013-02-02 17:54:00,
2013-02-02 10:59:00,47.3,22.4,17.72,SE,138,3.1,3.6,37,0.00,,---,0.00,VWS V14.00,2013-02-02 17:59:00,
2013-02-02 11:04:00,47.8,22.9,17.72,SE,144,3.6,4.0,37,0.00,,---,0.00,VWS V14.00,2013-02-02 18:04:00,
2013-02-02 11:09:00,48.2,23.2,17.72,ESE,109,5.4,5.4,37,0.00,,---,0.00,VWS V14.00,2013-02-02 18:09:00,
2013-02-02 11:15:00,48.6,23.5,17.72,SSE,153,6.3,6.3,37,0.00,,---,0.00,VWS V14.00,2013-02-02 18:15:00,
2013-02-02 11:20:00,49.1,24.0,17.72,SE,136,4.0,4.0,37,0.00,,---,0.00,VWS V14.00,2013-02-02 18:20:00,
2013-02-02 11:25:00,50.0,24.8,17.72,SE,132,4.5,4.5,37,0.00,,---,0.00,VWS V14.00,2013-02-02 18:25:00,
2013-02-02 11:30:00,51.1,25.7,17.72,NE,41,2.7,4.9,37,0.00,,---,0.00,VWS V14.00,2013-02-02 18:30:00,
2013-02-02 11:35:00,51.6,26.2,17.72,SE,146,2.7,3.1,37,0.00,,---,0.00,VWS V14.00,2013-02-02 18:35:00,
2013-02-02 11:40:00,52.0,25.9,17.72,SE,145,3.6,5.8,36,0.00,,---,0.00,VWS V14.00,2013-02-02 18:40:00,
2013-02-02 11:45:00,52.2,26.0,17.72,SE,132,4.9,5.4,36,0.00,,---,0.00,VWS V14.00,2013-02-02 18:45:00,
2013-02-02 11:50:00,52.5,26.4,17.72,South,171,5.4,5.8,36,0.00,,---,0.00,VWS V14.00,2013-02-02 18:50:00,
2013-02-02 11:55:00,52.3,26.2,17.72,ENE,65,5.4,5.8,36,0.00,,---,0.00,VWS V14.00,2013-02-02 18:55:00,
2013-02-02 12:00:00,52.7,26.5,17.72,NNE,29,0.0,4.9,36,0.00,,---,0.00,VWS V14.00,2013-02-02 19:00:00,
2013-02-02 12:05:00,53.4,27.1,17.72,SSW,200,0.0,3.6,36,0.00,,---,0.00,VWS V14.00,2013-02-02 19:05:00,
2013-02-02 12:10:00,53.4,27.1,17.72,ESE,118,3.1,4.9,36,0.00,,---,0.00,VWS V14.00,2013-02-02 19:10:00,
2013-02-02 12:15:00,54.0,27.6,17.72,SSW,194,2.7,4.0,36,0.00,,---,0.00,VWS V14.00,2013-02-02 19:15:00,
2013-02-02 12:20:00,55.2,28.8,17.72,SE,134,4.0,5.8,36,0.00,,---,0.00,VWS V14.00,2013-02-02 19:20:00,
2013-02-02 12:25:00,55.6,28.4,17.72,SE,130,4.0,4.0,35,0.00,,---,0.00,VWS V14.00,2013-02-02 19:25:00,
2013-02-02 12:30:00,55.2,28.8,17.72,East,88,0.0,5.8,36,0.00,,---,0.00,VWS V14.00,2013-02-02 19:30:00,
2013-02-02 12:35:00,54.9,28.4,17.72,SSW,193,0.0,2.2,36,0.00,,---,0.00,VWS V14.00,2013-02-02 19:35:00,
2013-02-02 12:40:00,55.6,28.4,17.72,ENE,70,4.0,4.9,35,0.00,,---,0.00,VWS V14.00,2013-02-02 19:40:00,
2013-02-02 12:45:00,55.2,28.8,17.72,SSE,150,3.6,5.8,36,0.00,,---,0.00,VWS V14.00,2013-02-02 19:45:00,
2013-02-02 12:50:00,55.8,28.5,17.72,SSE,167,4.0,5.4,35,0.00,,---,0.00,VWS V14.00,2013-02-02 19:50:00,
2013-02-02 12:55:00,56.1,28.9,17.72,East,81,4.0,6.3,35,0.00,,---,0.00,VWS V14.00,2013-02-02 19:55:00,
2013-02-02 13:00:00,55.8,28.5,17.72,SE,128,6.3,6.3,35,0.00,,---,0.00,VWS V14.00,2013-02-02 20:00:00,
2013-02-02 13:05:00,55.2,28.8,17.72,ESE,113,2.7,4.0,36,0.00,,---,0.00,VWS V14.00,2013-02-02 20:05:00,
2013-02-02 13:10:00,55.0,28.6,17.72,SE,132,2.7,4.0,36,0.00,,---,0.00,VWS V14.00,2013-02-02 20:10:00,
2013-02-02 13:15:00,55.9,28.7,17.72,NE,43,4.9,4.9,35,0.00,,---,0.00,VWS V14.00,2013-02-02 20:15:00,
2013-02-02 13:20:00,55.2,28.8,17.72,ENE,77,3.6,5.8,36,0.00,,---,0.00,VWS V14.00,2013-02-02 20:20:00,
2013-02-02 13:25:00,55.0,28.6,17.72,SSE,163,4.0,5.8,36,0.00,,---,0.00,VWS V14.00,2013-02-02 20:25:00,
2013-02-02 13:30:00,54.7,28.3,17.72,ESE,108,3.6,5.4,36,0.00,,---,0.00,VWS V14.00,2013-02-02 20:30:00,
2013-02-02 13:35:00,54.1,27.8,17.72,SSE,151,5.4,5.8,36,0.00,,---,0.00,VWS V14.00,2013-02-02 20:35:00,
2013-02-02 13:40:00,53.6,27.3,17.72,ENE,59,3.6,6.3,36,0.00,,---,0.00,VWS V14.00,2013-02-02 20:40:00,
2013-02-02 13:45:00,52.9,26.7,17.72,ESE,120,4.0,4.0,36,0.00,,---,0.00,VWS V14.00,2013-02-02 20:45:00,
2013-02-02 13:50:00,52.3,26.2,17.72,ESE,103,5.4,5.8,36,0.00,,---,0.00,VWS V14.00,2013-02-02 20:50:00,
2013-02-02 13:55:00,52.0,25.9,17.72,SSE,148,0.0,4.9,36,0.00,,---,0.00,VWS V14.00,2013-02-02 20:55:00,
2013-02-02 14:00:00,52.0,25.9,17.72,SE,124,2.7,4.9,36,0.00,,---,0.00,VWS V14.00,2013-02-02 21:00:00,
2013-02-02 14:05:00,51.6,26.2,17.72,SSE,153,4.0,4.9,37,0.00,,---,0.00,VWS V14.00,2013-02-02 21:05:00,
2013-02-02 14:10:00,51.4,26.0,17.72,NE,43,3.1,4.9,37,0.00,,---,0.00,VWS V14.00,2013-02-02 21:10:00,
2013-02-02 14:15:00,51.3,25.9,17.72,SSE,156,3.6,3.6,37,0.00,,---,0.00,VWS V14.00,2013-02-02 21:15:00,
2013-02-02 14:20:00,51.1,25.7,17.72,East,97,3.1,5.8,37,0.00,,---,0.00,VWS V14.00,2013-02-02 21:20:00,
2013-02-02 14:25:00,51.1,25.7,17.72,ESE,121,2.7,3.6,37,0.00,,---,0.00,VWS V14.00,2013-02-02 21:25:00,
2013-02-02 14:30:00,50.9,25.6,17.72,East,95,5.8,5.8,37,0.00,,---,0.00,VWS V14.00,2013-02-02 21:30:00,
2013-02-02 14:35:00,50.7,25.4,17.72,SE,143,3.6,7.6,37,0.00,,---,0.00,VWS V14.00,2013-02-02 21:35:00,
2013-02-02 14:40:00,50.5,25.2,17.72,SSE,156,3.6,5.8,37,0.00,,---,0.00,VWS V14.00,2013-02-02 21:40:00,
2013-02-02 14:45:00,50.4,25.1,17.72,East,82,3.1,8.1,37,0.00,,---,0.00,VWS V14.00,2013-02-02 21:45:00,
2013-02-02 14:50:00,50.5,25.2,17.72,SSE,158,5.8,5.8,37,0.00,,---,0.00,VWS V14.00,2013-02-02 21:50:00,
2013-02-02 14:55:00,50.7,25.4,17.72,SE,130,3.1,4.0,37,0.00,,---,0.00,VWS V14.00,2013-02-02 21:55:00,
2013-02-02 15:00:00,50.5,25.2,17.72,East,100,5.8,9.6,37,0.00,,---,0.00,VWS V14.00,2013-02-02 22:00:00,
2013-02-02 15:05:00,50.2,24.9,17.72,East,90,4.0,6.3,37,0.00,,---,0.00,VWS V14.00,2013-02-02 22:05:00,
2013-02-02 15:10:00,50.0,24.8,17.72,East,95,2.7,5.8,37,0.00,,---,0.00,VWS V14.00,2013-02-02 22:10:00,
2013-02-02 15:15:00,50.0,24.8,17.72,SE,139,3.1,4.9,37,0.00,,---,0.00,VWS V14.00,2013-02-02 22:15:00,
2013-02-02 15:20:00,49.8,24.6,17.72,SSE,156,5.8,5.8,37,0.00,,---,0.00,VWS V14.00,2013-02-02 22:20:00,
2013-02-02 15:25:00,49.8,24.6,17.72,SSE,167,4.9,4.9,37,0.00,,---,0.00,VWS V14.00,2013-02-02 22:25:00,
2013-02-02 15:30:00,49.6,24.5,17.72,ESE,110,5.4,6.7,37,0.00,,---,0.00,VWS V14.00,2013-02-02 22:30:00,
2013-02-02 15:35:00,49.6,24.5,17.72,NNE,33,5.4,6.3,37,0.00,,---,0.00,VWS V14.00,2013-02-02 22:35:00,
2013-02-02 15:40:00,49.5,24.3,17.72,East,86,6.3,6.3,37,0.00,,---,0.00,VWS V14.00,2013-02-02 22:40:00,
2013-02-02 15:45:00,49.5,24.3,17.72,ESE,113,4.0,4.0,37,0.00,,---,0.00,VWS V14.00,2013-02-02 22:45:00,
2013-02-02 15:50:00,49.5,24.3,17.72,SE,134,2.7,5.8,37,0.00,,---,0.00,VWS V14.00,2013-02-02 22:50:00,
2013-02-02 15:55:00,49.5,24.3,17.72,East,98,2.7,2.7,37,0.00,,---,0.00,VWS V14.00,2013-02-02 22:55:00,
2013-02-02 16:01:00,49.6,24.5,17.72,ESE,103,2.7,3.1,37,0.00,,---,0.00,VWS V14.00,2013-02-02 23:01:00,
2013-02-02 16:06:00,49.5,24.3,17.72,ESE,109,6.3,6.3,37,0.00,,---,0.00,VWS V14.00,2013-02-02 23:06:00,
2013-02-02 16:11:00,49.3,24.1,17.72,East,86,2.7,4.0,37,0.00,,---,0.00,VWS V14.00,2013-02-02 23:11:00,
2013-02-02 16:16:00,49.1,24.0,17.72,ESE,102,3.6,4.0,37,0.00,,---,0.00,VWS V14.00,2013-02-02 23:16:00,
2013-02-02 16:21:00,48.9,23.8,17.72,SE,138,3.1,4.0,37,0.00,,---,0.00,VWS V14.00,2013-02-02 23:21:00,
2013-02-02 16:26:00,48.7,23.6,17.72,ESE,115,0.0,2.7,37,0.00,,---,0.00,VWS V14.00,2013-02-02 23:26:00,
2013-02-02 16:31:00,48.6,23.5,17.72,NE,41,3.6,3.6,37,0.00,,---,0.00,VWS V14.00,2013-02-02 23:31:00,
2013-02-02 16:36:00,48.4,23.3,17.72,NE,39,4.0,4.0,37,0.00,,---,0.00,VWS V14.00,2013-02-02 23:36:00,
2013-02-02 16:41:00,48.2,23.2,17.72,ESE,119,0.0,3.6,37,0.00,,---,0.00,VWS V14.00,2013-02-02 23:41:00,
2013-02-02 16:46:00,47.8,22.9,17.72,East,94,2.2,4.0,37,0.00,,---,0.00,VWS V14.00,2013-02-02 23:46:00,
2013-02-02 16:51:00,47.7,22.7,17.72,SE,135,3.6,4.0,37,0.00,,---,0.00,VWS V14.00,2013-02-02 23:51:00,
2013-02-02 16:56:00,47.5,22.5,17.72,ESE,107,2.7,4.0,37,0.00,,---,0.00,VWS V14.00,2013-02-02 23:56:00,
2013-02-02 17:01:00,47.5,22.5,17.72,East,90,5.4,5.4,37,0.00,,---,0.00,VWS V14.00,2013-02-03 00:01:00,
2013-02-02 17:06:00,47.3,22.4,17.72,ESE,120,2.7,3.1,37,0.00,,---,0.00,VWS V14.00,2013-02-03 00:06:00,
2013-02-02 17:11:00,47.1,22.2,17.72,East,90,4.0,6.3,37,0.00,,---,0.00,VWS V14.00,2013-02-03 00:11:00,
2013-02-02 17:16:00,46.6,21.7,17.72,ESE,109,4.9,5.4,37,0.00,,---,0.00,VWS V14.00,2013-02-03 00:16:00,
2013-02-02 17:21:00,46.2,22.0,17.72,East,99,2.7,4.0,38,0.00,,---,0.00,VWS V14.00,2013-02-03 00:21:00,
2013-02-02 17:26:00,45.5,21.4,17.72,SE,125,5.4,5.4,38,0.00,,---,0.00,VWS V14.00,2013-02-03 00:26:00,
2013-02-02 17:31:00,45.0,20.9,17.72,NE,56,0.0,0.0,38,0.00,,---,0.00,VWS V14.00,2013-02-03 00:31:00,
2013-02-02 17:36:00,44.4,20.4,17.72,ENE,57,0.0,2.2,38,0.00,,---,0.00,VWS V14.00,2013-02-03 00:36:00,
2013-02-02 17:41:00,43.7,19.8,17.72,ESE,121,0.0,2.2,38,0.00,,---,0.00,VWS V14.00,2013-02-03 00:41:00,
2013-02-02 17:46:00,43.2,19.3,17.72,East,94,0.0,0.0,38,0.00,,---,0.00,VWS V14.00,2013-02-03 00:46:00,
2013-02-02 17:51:00,42.6,19.4,17.72,East,94,0.0,0.0,39,0.00,,---,0.00,VWS V14.00,2013-02-03 00:51:00,
2013-02-02 17:56:00,41.9,18.8,17.72,East,94,0.0,0.0,39,0.00,,---,0.00,VWS V14.00,2013-02-03 00:56:00,
2013-02-02 18:01:00,41.2,18.1,17.72,East,94,0.0,0.0,39,0.00,,---,0.00,VWS V14.00,2013-02-03 01:01:00,
2013-02-02 18:06:00,40.5,17.5,17.72,East,94,0.0,0.0,39,0.00,,---,0.00,VWS V14.00,2013-02-03 01:06:00,
2013-02-02 18:11:00,39.9,17.0,17.72,East,94,0.0,0.0,39,0.00,,---,0.00,VWS V14.00,2013-02-03 01:11:00,
2013-02-02 18:16:00,39.2,16.3,17.72,East,94,0.0,0.0,39,0.00,,---,0.00,VWS V14.00,2013-02-03 01:16:00,
2013-02-02 18:21:00,38.7,15.9,17.72,East,94,0.0,0.0,39,0.00,,---,0.00,VWS V14.00,2013-02-03 01:21:00,
2013-02-02 18:26:00,37.9,15.2,17.72,East,94,0.0,0.0,39,0.00,,---,0.00,VWS V14.00,2013-02-03 01:26:00,
2013-02-02 18:31:00,37.4,14.7,17.72,East,94,0.0,0.0,39,0.00,,---,0.00,VWS V14.00,2013-02-03 01:31:00,
2013-02-02 18:36:00,36.9,14.8,17.72,East,94,0.0,0.0,40,0.00,,---,0.00,VWS V14.00,2013-02-03 01:36:00,
2013-02-02 18:42:00,36.3,14.3,17.72,East,94,0.0,0.0,40,0.00,,---,0.00,VWS V14.00,2013-02-03 01:42:00,
2013-02-02 18:47:00,36.0,14.0,17.72,East,94,0.0,0.0,40,0.00,,---,0.00,VWS V14.00,2013-02-03 01:47:00,
2013-02-02 18:52:00,35.6,13.7,17.72,East,94,0.0,0.0,40,0.00,,---,0.00,VWS V14.00,2013-02-03 01:52:00,
2013-02-02 18:57:00,35.1,13.2,17.72,East,94,0.0,0.0,40,0.00,,---,0.00,VWS V14.00,2013-02-03 01:57:00,
2013-02-02 19:02:00,34.7,12.9,17.72,East,94,0.0,0.0,40,0.00,,---,0.00,VWS V14.00,2013-02-03 02:02:00,
2013-02-02 19:07:00,34.3,12.5,17.72,East,94,0.0,0.0,40,0.00,,---,0.00,VWS V14.00,2013-02-03 02:07:00,
2013-02-02 19:12:00,34.0,12.2,17.72,East,94,0.0,0.0,40,0.00,,---,0.00,VWS V14.00,2013-02-03 02:12:00,
2013-02-02 19:17:00,33.8,12.1,17.72,East,94,0.0,0.0,40,0.00,,---,0.00,VWS V14.00,2013-02-03 02:17:00,
2013-02-02 19:22:00,33.4,12.3,17.72,East,94,0.0,0.0,41,0.00,,---,0.00,VWS V14.00,2013-02-03 02:22:00,
2013-02-02 19:27:00,33.1,12.0,17.72,East,94,0.0,0.0,41,0.00,,---,0.00,VWS V14.00,2013-02-03 02:27:00,
2013-02-02 19:32:00,32.7,11.6,17.72,East,94,0.0,0.0,41,0.00,,---,0.00,VWS V14.00,2013-02-03 02:32:00,
2013-02-02 19:37:00,32.5,11.5,17.72,East,94,0.0,0.0,41,0.00,,---,0.00,VWS V14.00,2013-02-03 02:37:00,
2013-02-02 19:42:00,32.2,11.1,17.72,East,94,0.0,0.0,41,0.00,,---,0.00,VWS V14.00,2013-02-03 02:42:00,
2013-02-02 19:47:00,32.0,11.0,17.72,East,94,0.0,0.0,41,0.00,,---,0.00,VWS V14.00,2013-02-03 02:47:00,
2013-02-02 19:52:00,31.6,10.6,17.72,East,94,0.0,0.0,41,0.00,,---,0.00,VWS V14.00,2013-02-03 02:52:00,
2013-02-02 19:57:00,31.3,10.3,17.72,East,94,0.0,0.0,41,0.00,,---,0.00,VWS V14.00,2013-02-03 02:57:00,
2013-02-02 20:02:00,31.1,10.2,17.72,East,94,0.0,0.0,41,0.00,,---,0.00,VWS V14.00,2013-02-03 03:02:00,
2013-02-02 20:07:00,30.9,10.0,17.72,East,94,0.0,0.0,41,0.00,,---,0.00,VWS V14.00,2013-02-03 03:07:00,
2013-02-02 20:12:00,30.6,9.7,17.72,East,94,0.0,0.0,41,0.00,,---,0.00,VWS V14.00,2013-02-03 03:12:00,
2013-02-02 20:17:00,30.4,9.5,17.72,East,94,0.0,0.0,41,0.00,,---,0.00,VWS V14.00,2013-02-03 03:17:00,
2013-02-02 20:22:00,30.4,9.5,17.72,East,94,0.0,0.0,41,0.00,,---,0.00,VWS V14.00,2013-02-03 03:22:00,
2013-02-02 20:27:00,30.2,9.4,17.72,East,94,0.0,0.0,41,0.00,,---,0.00,VWS V14.00,2013-02-03 03:27:00,
2013-02-02 20:32:00,30.0,9.2,17.72,East,94,0.0,0.0,41,0.00,,---,0.00,VWS V14.00,2013-02-03 03:32:00,
2013-02-02 20:37:00,29.7,8.9,17.72,East,94,0.0,0.0,41,0.00,,---,0.00,VWS V14.00,2013-02-03 03:37:00,
2013-02-02 20:42:00,29.5,8.7,17.72,East,94,0.0,0.0,41,0.00,,---,0.00,VWS V14.00,2013-02-03 03:42:00,
2013-02-02 20:47:00,29.3,8.5,17.72,East,94,0.0,0.0,41,0.00,,---,0.00,VWS V14.00,2013-02-03 03:47:00,
2013-02-02 20:52:00,29.1,8.4,17.72,East,94,0.0,0.0,41,0.00,,---,0.00,VWS V14.00,2013-02-03 03:52:00,
2013-02-02 20:57:00,29.1,8.4,17.72,East,94,0.0,0.0,41,0.00,,---,0.00,VWS V14.00,2013-02-03 03:57:00,
2013-02-02 21:02:00,28.9,8.2,17.72,East,94,0.0,0.0,41,0.00,,---,0.00,VWS V14.00,2013-02-03 04:02:00,
2013-02-02 21:07:00,28.8,8.0,17.72,East,94,0.0,0.0,41,0.00,,---,0.00,VWS V14.00,2013-02-03 04:07:00,
2013-02-02 21:12:00,28.8,8.0,17.72,East,94,0.0,0.0,41,0.00,,---,0.00,VWS V14.00,2013-02-03 04:12:00,
2013-02-02 21:17:00,28.6,7.9,17.72,East,94,0.0,0.0,41,0.00,,---,0.00,VWS V14.00,2013-02-03 04:17:00,
2013-02-02 21:22:00,28.6,7.9,17.72,East,94,0.0,0.0,41,0.00,,---,0.00,VWS V14.00,2013-02-03 04:22:00,
2013-02-02 21:27:00,28.6,7.9,17.72,East,94,0.0,0.0,41,0.00,,---,0.00,VWS V14.00,2013-02-03 04:27:00,
2013-02-02 21:32:00,28.4,8.2,17.72,East,94,0.0,0.0,42,0.00,,---,0.00,VWS V14.00,2013-02-03 04:32:00,
2013-02-02 21:37:00,28.2,8.1,17.72,East,94,0.0,0.0,42,0.00,,---,0.00,VWS V14.00,2013-02-03 04:37:00,
2013-02-02 21:42:00,28.2,8.1,17.72,East,94,0.0,0.0,42,0.00,,---,0.00,VWS V14.00,2013-02-03 04:42:00,
2013-02-02 21:47:00,28.2,8.1,17.72,East,94,0.0,0.0,42,0.00,,---,0.00,VWS V14.00,2013-02-03 04:47:00,
2013-02-02 21:52:00,28.2,8.1,17.72,East,94,0.0,0.0,42,0.00,,---,0.00,VWS V14.00,2013-02-03 04:52:00,
2013-02-02 21:57:00,28.2,8.1,17.72,East,94,0.0,0.0,42,0.00,,---,0.00,VWS V14.00,2013-02-03 04:57:00,
2013-02-02 22:00:00,28.2,8.1,17.72,East,94,0.0,0.0,42,0.00,,---,0.00,VWS V14.00,2013-02-03 05:00:00,
2013-02-02 22:05:00,28.2,8.1,17.72,East,94,0.0,0.0,42,0.00,,---,0.00,VWS V14.00,2013-02-03 05:05:00,
2013-02-02 22:08:00,28.2,8.1,17.72,East,94,0.0,0.0,42,0.00,,---,0.00,VWS V14.00,2013-02-03 05:08:00,
2013-02-02 22:13:00,28.0,7.9,17.72,East,94,0.0,0.0,42,0.00,,---,0.00,VWS V14.00,2013-02-03 05:13:00,
2013-02-02 22:18:00,28.0,7.9,17.72,East,94,0.0,0.0,42,0.00,,---,0.00,VWS V14.00,2013-02-03 05:18:00,
2013-02-02 22:23:00,28.0,7.9,17.72,East,94,0.0,0.0,42,0.00,,---,0.00,VWS V14.00,2013-02-03 05:23:00,
2013-02-02 22:28:00,28.2,8.1,17.72,East,94,0.0,0.0,42,0.00,,---,0.00,VWS V14.00,2013-02-03 05:28:00,
2013-02-02 22:33:00,28.2,8.1,17.72,East,94,0.0,0.0,42,0.00,,---,0.00,VWS V14.00,2013-02-03 05:33:00,
2013-02-02 22:38:00,28.2,8.1,17.72,East,94,0.0,0.0,42,0.00,,---,0.00,VWS V14.00,2013-02-03 05:38:00,
2013-02-02 22:43:00,28.2,8.1,17.72,East,94,0.0,0.0,42,0.00,,---,0.00,VWS V14.00,2013-02-03 05:43:00,
2013-02-02 22:48:00,28.6,7.9,17.72,East,94,0.0,0.0,41,0.00,,---,0.00,VWS V14.00,2013-02-03 05:48:00,
2013-02-02 22:53:00,28.6,7.9,17.72,East,94,0.0,0.0,41,0.00,,---,0.00,VWS V14.00,2013-02-03 05:53:00,
2013-02-02 22:58:00,28.8,8.0,17.72,East,94,0.0,0.0,41,0.00,,---,0.00,VWS V14.00,2013-02-03 05:58:00,
2013-02-02 23:03:00,28.9,8.2,17.72,East,94,0.0,0.0,41,0.00,,---,0.00,VWS V14.00,2013-02-03 06:03:00,
2013-02-02 23:08:00,28.9,8.2,17.72,East,94,0.0,0.0,41,0.00,,---,0.00,VWS V14.00,2013-02-03 06:08:00,
2013-02-02 23:13:00,28.9,8.2,17.72,East,94,0.0,0.0,41,0.00,,---,0.00,VWS V14.00,2013-02-03 06:13:00,
2013-02-02 23:18:00,29.1,8.4,17.72,East,94,0.0,0.0,41,0.00,,---,0.00,VWS V14.00,2013-02-03 06:18:00,
2013-02-02 23:23:00,29.1,8.4,17.72,East,94,0.0,0.0,41,0.00,,---,0.00,VWS V14.00,2013-02-03 06:23:00,
2013-02-02 23:28:00,29.1,8.4,17.72,East,94,0.0,0.0,41,0.00,,---,0.00,VWS V14.00,2013-02-03 06:28:00,
2013-02-02 23:33:00,29.1,8.4,17.72,East,94,0.0,0.0,41,0.00,,---,0.00,VWS V14.00,2013-02-03 06:33:00,
2013-02-02 23:38:00,29.1,8.4,17.72,East,94,0.0,0.0,41,0.00,,---,0.00,VWS V14.00,2013-02-03 06:38:00,
2013-02-02 23:43:00,29.1,8.4,17.72,East,94,0.0,0.0,41,0.00,,---,0.00,VWS V14.00,2013-02-03 06:43:00,
2013-02-02 23:48:00,28.9,8.2,17.72,East,94,0.0,0.0,41,0.00,,---,0.00,VWS V14.00,2013-02-03 06:48:00,
2013-02-02 23:53:00,28.8,8.0,17.72,East,94,0.0,0.0,41,0.00,,---,0.00,VWS V14.00,2013-02-03 06:53:00,
2013-02-02 23:58:00,28.6,7.9,17.72,East,94,0.0,0.0,41,0.00,,---,0.00,VWS V14.00,2013-02-03 06:58:00,